Regional Weather Roundup
Issued by NWS Charleston, SC

Current Version | Previous Version | Graphics & Text | Print | Product List | Glossary On
Versions: 1 2 3 4 5 6 7 8 9 10 11 12 13 14 15 16 17 18 19 20 21 22 23 24 25 26 27 28 29 30 31 32 33 34 35 36 37 38 39 40 41 42 43 44 45 46 47 48 49 50
000
ASUS42 KCHS 132210
RWRCHS
REGIONAL WEATHER ROUNDUP
NATIONAL WEATHER SERVICE CHARLESTON SC
600 PM EDT SUN JUL 13 2014

NOTE: "FAIR" INDICATES FEW OR NO CLOUDS BELOW 12,000 FEET WITH NO
SIGNIFICANT WEATHER AND/OR OBSTRUCTIONS TO VISIBILITY.

NOT ALL STATIONS ARE QUALITY CONTROLLED BY THE NATIONAL
WEATHER SERVICE. USE DATA WITH CAUTION...ESPECIALLY
DEWPOINT OBSERVATIONS.

SCZ027-030-031-034>040-042>050-132300-
...SOUTH CAROLINA...

CITY           SKY/WX    TMP DP  RH WIND       PRES   REMARKS
N CHARLESTON   PTSUNNY   84  72  67 SE12      30.06F
WATERFRONT PRK   N/A     79 N/A N/A SE8         N/A
FORT JOHNSON   NOT AVBL
MOUNT PLEASANT FAIR      82  73  74 S8        30.07F
JOHNS ISLAND   PTCLDY    81  66  61 CALM      30.07F
PINOPOLIS        N/A     88  73  62 S5        30.00S HX  96
MONCKS CORNER    N/A     84  75  74 S7        30.05F HX  92
SUMMERVILLE    FAIR      86  73  66 S5        30.07F HX  93
BEAUFORT MCAS  PTSUNNY   84  73  69 S7        30.06F HX  90
BEAUFORT ARPT  FAIR      81  73  78 SE6       30.06F
HILTON HEAD IS MOSUNNY   82  73  74 SE7       30.08F
GEORGETOWN     NOT AVBL
WALTERBORO     PTCLDY    84  70  61 SE8       30.06F
ORANGEBURG     SUNNY     89  69  51 S9        30.04F HX  93
BARNWELL       FAIR      90  68  48 S6        30.03F HX  93
AIKEN          FAIR      91  68  46 SW5       30.07F HX  95
MANNING        FAIR      88  68  51 S6        30.05F HX  91
KINGSTREE      NOT AVBL
COLUMBIA       PTSUNNY   92  67  43 SE6       30.01F HX  95
SUMTER         MOSUNNY   89  70  53 S9        30.02F HX  95
FLORENCE       MOSUNNY   90  72  55 S9        30.03F HX  97
MYRTLE BEACH   NOT AVBL
N MYRTLE BEACH MOSUNNY   83  72  69 SW13      30.06F

$$

GAZ063-065-086>088-099>101-113>116-118-119-134-136>141-150-132300-
...GEORGIA...

CITY           SKY/WX    TMP DP  RH WIND       PRES   REMARKS
SAVANNAH ARPT  LGT RAIN  78  74  87 E8        30.07F
HUNTER AAF     PTSUNNY   79  75  86 SE9       30.05F
FORT STEWART   MOSUNNY   79  75  87 E10       30.05F
STATESBORO     NOT AVBL
SYLVANIA       PTCLDY    89  74  60 S8        30.05S HX  98
CLAXTON        MOCLDY    90  72  55 SW3       30.04F HX  96
THOMSON        MOSUNNY   93  69  44 W3        30.08F HX  97
AUGUSTA-BUSH   MOSUNNY   90  65  43 SE3       30.02F HX  92
AUGUSTA-DANIEL MOSUNNY   92  65  40 VRB3      30.04F HX  94
SWAINSBORO     FAIR      93  72  49 CALM      30.04F HX 100
VIDALIA          N/A     90  70  51 SW6       30.05F HX  95
ALMA           PTSUNNY   89  70  53 S7        30.04F HX  94
WAYCROSS       MOSUNNY   94  73  50 SW6       30.05S HX 103
JESUP          NOT AVBL
BRUNSWICK      MOSUNNY   84  72  65 CALM      30.07F
SAINT SIMONS   MOSUNNY   83  74  74 SE12      30.07F

$$

SCZ027-028-034-036>038-045-046-048>050-GAZ119-141-132300-
...LAKE AND SUPPLEMENTAL COASTAL OBSERVATIONS...

STATION/POSITION TIME  TEMP    WIND        PRES    WAVE   SWELL
                       AIR SEA DIR/SP/G            HT/PER HT/PER/DIR
                 (UTC) (F)     (DEG/KT/KT) (MB)    (FT/S) (FT/S/D)
UPR LAKE MARION  NOT AVBL
WINYAH BAY       2100   82     150/  9     1018.0F
LAKE MURRAY      2100   89     220/  4/  5 1016.3F
ACE BASIN NERRS  2100   83     140/  2     1019.0S
FORT PULASKI     2200   80 78  120/  6/ 11   N/A
SAPELO ISLAND    2100   86     150/  7     1020.0S

$$

ANZ835-935-AMZ111-154-330-350-352-354-374-450-454-472-132300-
...C-MAN AND BUOY OBSERVATIONS...

STATION/POSITION TIME  TEMP    WIND        PRES    WAVE   SWELL
                       AIR SEA DIR/SP/G            HT/PER HT/PER/DIR
                 (UTC) (F)     (DEG/KT/KT) (MB)    (FT/S) (FT/S/D)
FOLLY BEACH CMAN 2100   79     150/  9/ 10 1019.3F
BUOY 41004       2200   80 82  210/  8/ 10 1017.8F   2/ 8   2/ 8
BUOY 41008       2200   81 84  140/ 12/ 14 1018.0F   2/ 7   2/120/ 7
5E ST. MARYS GA  2200      83                N/A     2/ 7
FRYING PAN BUOY  NOT AVBL
BUOY 41025       2200          VRB 12/ 14  1018.7F   2/ 8   2/140/ 8
CAPE LOOKOUT NC  2100   82     180/ 10/ 13 1019.1F
BUOY 41002       2115   83 88  210/  4/  6 1020.8F   2/ 8   2/160/ 8
BUOY 41010       2200   83 85  100/  6/ 10 1020.0F   3/ 8   3/140/ 8
BUOY 41012       NOT AVBL
ST AUGUSTINE FL  2200   81     120/ 11/ 13 1019.5F
CAPERS NEARSHORE 2100   81     190/  6/  8   N/A
FRIPP NEARSHORE  2100   81     160/  8/ 10   N/A


$$



USA.gov is the U.S. government's official web portal to all federal, state and local government web resources and services.